This demonstration page uses our WeatherBlox Daily Observations layout. Learn more.

36.17497, -115.13722

Hourly Observations for July 22, 2015

Temp ( °F °C ) Dew Point ( °F °C ) Humidity (%) Winds ( mph kmh ) Pressure ( in mb ) Visibility ( mi km ) Precip ( " mm )
12:53 am 00:53 Clear 86 30 43 6 22 22 W 5 7 29.65 1004 10 16.09344 0 0
1:53 am 01:53 Clear 84 29 43 6 23 23 W 3 6 29.65 1004 10 16.09344 0 0
2:53 am 02:53 Clear 82 28 46 8 28 28 NNW 7 11 29.65 1004 10 16.09344 0 0
3:53 am 03:53 Clear 81 27 46 8 30 30 NNW 3 6 29.65 1004 10 16.09344 0 0
4:53 am 04:53 Clear 79 26 46 8 32 32 Calm 29.68 1005 10 16.09344 0 0
5:53 am 05:53 Sunny 79 26 48 9 34 34 NNW 5 7 29.71 1006 10 16.09344 0 0
6:53 am 06:53 Sunny 81 27 48 9 32 32 W 3 6 29.68 1005 10 16.09344 0 0
7:53 am 07:53 Sunny 84 29 50 10 31 31 Calm 29.68 1005 10 16.09344 0 0
8:53 am 08:53 Sunny 86 30 50 10 29 29 Calm 29.71 1006 10 16.09344 0 0
9:53 am 09:53 Sunny 90 32 48 9 24 24 SSE 7 11 29.65 1004 10 16.09344 0 0
10:53 am 10:53 Sunny 91 33 50 10 24 24 S 8 13 29.65 1004 10 16.09344 0 0
11:53 am 11:53 Sunny 95 35 50 10 22 22 N 7 11 29.59 1002 10 16.09344 0 0
12:53 pm 12:53 Partly Cloudy 97 36 48 9 19 19 S 10 17 29.59 1002 10 16.09344 0 0
1:14 pm 13:14 Mostly Cloudy 97 36 50 10 20 20 S 12 19 29.56 1001 10 16.09344 0 0
1:53 pm 13:53 Mostly Sunny 97 36 48 9 19 19 SSE 10 17 29.56 1001 10 16.09344 0 0
2:53 pm 14:53 Mostly Cloudy 99 37 46 8 17 17 S 16 26 29.53 1000 10 16.09344 0 0
3:53 pm 15:53 Sunny 99 37 43 6 15 15 S 16 26 29.53 1000 10 16.09344 0 0
4:53 pm 16:53 Sunny 100 38 45 7 15 15 SSW 14 22 29.47 998 10 16.09344 0 0
5:53 pm 17:53 Sunny 99 37 43 6 15 15 S 17 28 29.5 999 10 16.09344 0 0
6:53 pm 18:53 Sunny 97 36 43 6 16 16 SSW 16 26 29.5 999 10 16.09344 0 0
7:53 pm 19:53 Sunny 95 35 41 5 15 15 SSW 15 24 29.5 999 10 16.09344 0 0
8:53 pm 20:53 Clear 93 34 39 4 15 15 SSW 16 26 29.53 1000 10 16.09344 0 0
9:53 pm 21:53 Clear 91 33 37 3 15 15 SSW 12 19 29.62 1003 10 16.09344 0 0
10:53 pm 22:53 Clear 90 32 34 1 14 14 SSW 16 26 29.62 1003 10 16.09344 0 0
11:53 pm 23:53 Clear 88 31 34 1 15 15 SSW 14 22 29.65 1004 10 16.09344 0 0

Powered by AerisWeather